Regional Weather Roundup
Issued by NWS

Home | Current Version | Previous Version | Graphics & Text | Print | Product List | Glossary On
Versions: 1 2 3 4 5 6 7 8 9 10 11 12 13 14 15 16 17 18 19 20 21 22 23 24 25 26 27 28 29 30 31 32 33 34 35 36 37 38 39 40 41 42 43 44 45 46 47 48 49 50
000
ASUS44 KMEG 171310
RWRTN
TENNESSEE HOURLY STATE WEATHER ROUNDUP
NATIONAL WEATHER SERVICE MEMPHIS TN
700 AM CST SUN DEC 17 2017

TNZ002-004-019-021-049-052-054-088>092-171400-
WEST TENNESSEE

CITY           SKY/WX    TMP DP  RH WIND       PRES   REMARKS
MEMPHIS INTL   LGT RAIN  41  40  96 E14       30.09F
NWS MEMPHIS      N/A     40 N/A N/A MISG        N/A
JACKSON        RAIN      40  40 100 SE6       30.20R FOG
DYERSBURG      LGT RAIN  41  39  93 SE9       30.14F
SOMERVILLE     CLOUDY    41  39  93 CALM      30.13F FOG
COVINGTON      MOCLDY    41  41 100 SE12      30.14F
UNION CITY     CLOUDY    41  39  93 SE7       30.16F FOG
BOLIVAR        CLOUDY    39  39 100 E6        30.17F FOG     WCI  35
PARIS          CLOUDY    39  37  93 S7        30.17F FOG     WCI  34
HUNTINGDON     MOCLDY    41  39  93 SE5       30.17F
LEXINGTON      CLOUDY    39  37  93 MISG      30.20S FOG
SELMER         CLOUDY    39  37  93 SW6       30.23R FOG     WCI  35
SAVANNAH       CLOUDY    41  39  93 SW8       30.23R
$$

TNZ008-025-027-028-033-062-065-066-171400-
NORTH MIDDLE TENNESSEE

CITY           SKY/WX    TMP DP  RH WIND       PRES   REMARKS
NASHVILLE      LGT RAIN  40  36  86 SE7       30.22F
PORTLAND       CLOUDY    41  32  70 S7        30.21F
CLARKSVILLE    CLOUDY    41  33  73 SE5       30.19F
SMYRNA         LGT RAIN  39  37  92 SE7       30.25F WCI  34
COOKEVILLE     CLOUDY    37  34  87 CALM      30.27R
GALLATIN       CLOUDY    39  36  87 E3        30.26F
CROSSVILLE     CLOUDY    36  28  73 W6        30.25R WCI  31
$$

TNZ061-075-076-078-094-096-097-171400-
SOUTH MIDDLE TENNESSEE

CITY           SKY/WX    TMP DP  RH WIND       PRES   REMARKS
FAYETTEVILLE   CLOUDY    41  36  81 E5        30.23F
TULLAHOMA      CLOUDY    39  34  81 CALM      30.26R
WINCHESTER     CLOUDY    43  32  65 CALM      30.28R
MCMINNVILLE    CLOUDY    39  32  75 CALM      30.27R
COLUMBIA       CLOUDY    39  37  93 E6        30.19F WCI  35
SHELBYVILLE    MOCLDY    39  36  87 E3        30.25F
$$

TNZ017-018-042-046-047-171400-
NORTHEAST TENNESSEE

CITY           SKY/WX    TMP DP  RH WIND       PRES   REMARKS
TRI CITIES     MOCLDY    30  27  88 CALM      30.24F
ELIZABETHTON   CLEAR     30  28  93 CALM      30.23F
$$

TNZ012-013-036-069-073-074-171400-
CENTRAL EAST TENNESSEE

CITY           SKY/WX    TMP DP  RH WIND       PRES   REMARKS
KNOXVILLE      CLOUDY    33  31  92 N5        30.24R WCI  29
OAK RIDGE      CLOUDY    33  32  96 CALM      30.26R
DOWNTOWN KNOXV MOCLDY    34  32  93 SE3       30.26R
GATLINBURG     PTCLDY    27  27 100 CALM      30.25R
MORRISTOWN     CLEAR     32  28  86 E3        30.22F
JACKSBORO      CLOUDY    32  30  93 CALM      30.29R
$$

TNZ083-085-099-171400-
SOUTHEAST TENNESSEE

CITY           SKY/WX    TMP DP  RH WIND       PRES   REMARKS
CHATTANOOGA    CLOUDY    34  31  88 N3        30.26R
DAYTON         CLOUDY    32  32 100 CALM      30.26R
$$

SKY/WX REPORTED AS FAIR MEANS FEW OR NO CLOUDS BELOW
12 THOUSAND FEET.




USA.gov is the U.S. government's official web portal to all federal, state and local government web resources and services.